Location: Dead Woman Crossing
(43.5369°N, 106.3228°W)
Time: 00:15:26
(UTC+00:00)

NOAA 15 - Visible Passes

Search period start: 29 June 2022 00:00
Search period end: 09 July 2022 00:00
Orbit: 798 x 811 km, 98.6° (Epoch: 28 June)

Date Brightness Start Highest point End Pass type
(mag) Time Alt. Az. Time Alt. Az. Time Alt. Az.
29 Jun 7.2 03:25:06 10° SW 03:28:15 16° W 03:31:24 10° NW visible
03 Jul 7.2 03:23:40 10° SW 03:26:54 16° W 03:30:09 10° NW visible
07 Jul 7.2 03:22:12 10° SW 03:25:33 17° W 03:28:54 10° NW visible
